Tracking 35274 objects as of 12-Sep-2026
HD Live streaming from Space Station
objects crossing your sky now

STARLINK-3927

Track STARLINK-3927 now!
10-day predictions
STARLINK-3927 is classified as:


NORAD ID: 52569
Int'l Code: 2022-051AN
Launch date: May 13, 2022
Source: United States (US)
Launch site: AIR FORCE WESTERN TEST RANGE (AFWTR)
Your satellite tracking list
Your tracking list is empty




NASA's NSSDC Master Catalog

Two Line Element Set (TLE):
1 52569U 22051AN  26254.54197751  .00001035  00000-0  45113-4 0  9992
2 52569  53.1618 351.9840 0001159  77.7894 282.3237 15.31698330239810
Source of the keplerian elements: AFSPC